Tracking 19908 objects as of 18-Oct-2019
HD Live streaming from Space Station
objects crossing your sky now

ATLAS 2AS CENTAUR R/B

Track ATLAS 2AS CENTAUR R/B now!


NORAD ID: 24937
Int'l Code: 1997-050B
Perigee: 274.4 km
Apogee: 37,829.5 km
Inclination: 18.3 °
Period: 672.4 minutes
Semi major axis: 25422 km
RCS: 13.7884 m2 (large)
Launch date: September 4, 1997
Source: United States (US)
Launch site: AIR FORCE EASTERN TEST RANGE (AFETR)

Note: This is a ROCKET BODY
aabbcc
Your satellite tracking list
Your tracking list is empty




NASA's NSSDC Master Catalog

Two Line Element Set (TLE):
1 24937U 97050B   19291.29299592  .00003192  00000-0  13909-2 0  9994
2 24937  18.2714 134.5975 7386073 112.3215 336.6931  2.14172535161787
Source of the keplerian elements: AFSPC